Weather History for KCXY - March, 2013

Change the Weather History Date:

Monday, March 4, 2013

  Actual Average Record
Temperature  
Mean Temperature 32 °F -  
Max Temperature 37 °F 43 °F 79 °F (1974)
Min Temperature 27 °F 27 °F 8 °F (1943)
Degree Days  
Heating Degree Days 33    
Moisture  
Dew Point 16 °F    
Average Humidity 53    
Maximum Humidity 64    
Minimum Humidity 43    
Precipitation  
Precipitation 0.00 in - - ()
Sea Level Pressure  
Sea Level Pressure 29.98 in    
Wind  
Wind Speed 13 mph (WNW)    
Max Wind Speed 20 mph    
Max Gust Speed 28 mph    
Visibility 10 miles    
Events      
Averages and records for this station are not official NWS values.
T = Trace of Precipitation, MM = Missing Value Source: NWS Daily Summary

Daily Weather History Graph

Daily Weather History Graph

Search for Another Location

Airport or City:

Trip Planner

Search our weather history database for the weather conditions in past years. The results will help you decide how hot, cold, wet, or windy it might be!

Date:

Astronomy

Mar. 04, 2013 Rise Set
Actual Time 6:36 AM EST 6:02 PM EST
Civil Twilight 6:08 AM EST 6:29 PM EST
Nautical Twilight 5:37 AM EST 7:01 PM EST
Astronomical Twilight 5:05 AM EST 7:32 PM EST
Moon 12:43 AM EST (3/4) 10:42 AM EST (3/4)
Length of Visible Light 12h 21m
Length of Day
11h 26m
Waning Gibbous, 52% of the Moon is Illuminated
Mar 4
Waning Gibbous
Mar 4
Last Quarter
Mar 11
New
Mar 19
First Quarter
Mar 27
Full

Hourly Weather History & Observations

Time (EST) Temp. Windchill Dew Point Humidity Pressure Visibility Wind Dir Wind Speed Gust Speed Precip Events Conditions
12:56 AM 30.0 °F 19.5 °F 15.1 °F 54% 29.91 in 10.0 mi WNW 13.8 mph 26.5 mph N/A   Overcast
1:56 AM 28.9 °F 18.6 °F 14.0 °F 54% 29.92 in 10.0 mi WNW 12.7 mph 21.9 mph N/A   Overcast
2:56 AM 28.9 °F 17.7 °F 14.0 °F 54% 29.91 in 10.0 mi NW 15.0 mph 23.0 mph N/A   Overcast
4:56 AM 27.0 °F 16.1 °F 12.9 °F 56% 29.94 in 10.0 mi WNW 12.7 mph 20.7 mph N/A   Mostly Cloudy
5:56 AM 27.0 °F 15.6 °F 12.9 °F 56% 29.96 in 10.0 mi WNW 13.8 mph 24.2 mph N/A   Overcast
7:56 AM 28.0 °F 16.5 °F 15.1 °F 58% 29.98 in 10.0 mi WNW 15.0 mph 23.0 mph N/A   Overcast
8:56 AM 28.9 °F 19.8 °F 16.0 °F 58% 29.99 in 10.0 mi WNW 10.4 mph 25.3 mph N/A   Overcast
9:56 AM 30.0 °F 18.3 °F 15.1 °F 54% 29.99 in 10.0 mi WNW 17.3 mph 26.5 mph N/A   Overcast
10:56 AM 32.0 °F 21.6 °F 15.1 °F 50% 29.99 in 10.0 mi NW 15.0 mph 20.7 mph N/A   Mostly Cloudy
11:56 AM 34.0 °F 22.7 °F 16.0 °F 48% 29.99 in 10.0 mi NW 19.6 mph 26.5 mph N/A   Mostly Cloudy
12:56 PM 34.0 °F 23.4 °F 17.1 °F 50% 29.98 in 10.0 mi NW 17.3 mph 27.6 mph N/A   Overcast
1:56 PM 36.0 °F 25.6 °F 17.1 °F 46% 29.95 in 10.0 mi WNW 18.4 mph 25.3 mph N/A   Mostly Cloudy
2:56 PM 37.9 °F 29.6 °F 17.1 °F 43% 29.95 in 10.0 mi NW 13.8 mph 24.2 mph N/A   Partly Cloudy
3:56 PM 37.0 °F 27.4 °F 17.1 °F 44% 29.96 in 10.0 mi NW 17.3 mph 27.6 mph N/A   Scattered Clouds
4:56 PM 36.0 °F 27.1 °F 18.0 °F 48% 29.97 in 10.0 mi WNW 13.8 mph 21.9 mph N/A   Partly Cloudy
5:56 PM 34.0 °F 25.5 °F 17.1 °F 50% 29.99 in 10.0 mi NW 11.5 mph - N/A   Clear
6:56 PM 33.1 °F 25.5 °F 17.1 °F 52% 30.01 in 10.0 mi WNW 9.2 mph - N/A   Clear
7:56 PM 32.0 °F 26.4 °F 17.1 °F 54% 30.01 in 10.0 mi WNW 5.8 mph - N/A   Clear
8:56 PM 32.0 °F 24.8 °F 17.1 °F 54% 30.02 in 10.0 mi WNW 8.1 mph - N/A   Clear
9:56 PM 30.9 °F 25.2 °F 17.1 °F 57% 30.03 in 10.0 mi WNW 5.8 mph - N/A   Clear
10:56 PM 28.9 °F 25.2 °F 18.0 °F 64% 30.04 in 10.0 mi WSW 3.5 mph - N/A   Clear
11:56 PM 28.0 °F - 17.1 °F 63% 30.04 in 10.0 mi Calm Calm - N/A   Clear